Overview Statistics Trail Chart Weather Telemetry Raw packets
 

This is the latest recevied weather packets stored in our database for station/object YC0ACE-13. If no packets are shown the sender has not sent any weather packets the latest 10 day(s).

<< 1 2 3 4 5 6 >>
Time Temp. Humidity Pressure Rain* Wind** Luminosity Snow
1788564625 26.11° C 72% 1014.6 hPa 0 mm - 40 W/m² -
1788564326 26.11° C 72% 1014.6 hPa 0 mm - 34 W/m² -
1788564025 26.11° C 73% 1014.2 hPa 0 mm - 26 W/m² -
1788563725 25.56° C 73% 1014.2 hPa 0 mm - 21 W/m² -
1788563425 25.56° C 73% 1014.2 hPa 0 mm - 16 W/m² -
1788563126 25.56° C 73% 1014.2 hPa 0 mm - 11 W/m² -
1788562825 26.11° C 73% 1013.9 hPa 0 mm - 7 W/m² -
1788562525 26.11° C 73% 1014.2 hPa 0 mm - 4 W/m² -
1788562224 26.11° C 73% 1013.9 hPa 0 mm - 2 W/m² -
1788561927 26.11° C 73% 1013.9 hPa 0 mm - 1 W/m² -
1788561626 26.11° C 73% 1013.9 hPa 0 mm - 0 W/m² -
1788561324 26.11° C 73% 1013.9 hPa 0 mm - 0 W/m² -
1788561025 26.11° C 73% 1013.9 hPa 0 mm - 0 W/m² -
1788560725 26.11° C 73% 1013.9 hPa 0 mm - 0 W/m² -
1788560424 26.11° C 73% 1013.5 hPa 0 mm - 0 W/m² -
1788560124 26.11° C 73% 1013.5 hPa 0 mm - 0 W/m² -
1788559826 26.11° C 73% 1013.5 hPa 0 mm - 0 W/m² -
1788559524 26.11° C 73% 1013.9 hPa 0 mm - 0 W/m² -
1788559225 26.11° C 73% 1013.5 hPa 0 mm - 0 W/m² -
1788558925 26.11° C 73% 1013.2 hPa 0 mm - 0 W/m² -
1788558624 26.11° C 73% 1013.2 hPa 0 mm - 0 W/m² -
1788558324 26.11° C 73% 1013.5 hPa 0 mm - 0 W/m² -
1788558024 26.11° C 73% 1013.2 hPa 0 mm - 0 W/m² -
1788557724 26.11° C 73% 1013.5 hPa 0 mm - 0 W/m² -
1788557425 26.11° C 73% 1013.2 hPa 0 mm - 0 W/m² -

* Rain latest hour (hover to see other rain measurements)
** Current wind speed in m/s (hover to see current wind gust speed)